FW0303 Weather Reports


time (UTC)temp
F
wind
direction
speed
knots
gust
knots
rain 1hr
in
rain 24hr
in
rain mn
in
humidity
%
barometer
mb
20260510190026 75 244 0.0 0.0 0.00 0.14 0.00 54 1012.7
20260510184515 75 211 0.0 0.0 0.00 0.14 0.00 54 1012.7
20260510183014 76 26 0.0 0.0 0.00 0.14 0.00 53 1012.7
20260510181514 77 310 0.0 0.0 0.00 0.14 0.00 53 1012.6
20260510180010 76 275 0.0 0.0 0.00 0.14 0.00 51 1012.8
20260510174509 76 203 0.0 0.0 0.00 0.14 0.00 58 1012.7
20260510173005 75 323 0.0 0.0 0.00 0.14 0.00 57 1012.7
20260510171503 74 249 0.0 0.0 0.00 0.14 0.00 67 1012.7
20260510170101 73 246 0.0 0.0 0.00 0.14 0.00 65 1012.7
20260510164601 72 254 0.0 0.0 0.00 0.14 0.00 66 1012.8
20260510163059 70 300 0.0 0.0 0.00 0.14 0.00 69 1012.8
20260510161548 69 315 0.0 0.0 0.00 0.14 0.00 73 1012.9
20260510160047 67 288 0.0 0.0 0.00 0.14 0.00 75 1012.9
20260510154541 66 277 0.0 0.0 0.00 0.14 0.00 78 1013.2
20260510153040 64 269 0.0 0.0 0.00 0.14 0.00 80 1013.2
20260510151535 62 268 0.0 0.0 0.00 0.14 0.00 83 1013.3
20260510150030 61 264 0.0 0.0 0.00 0.14 0.00 86 1013.2
20260510144525 59 252 0.0 0.0 0.00 0.14 0.00 88 1013.3
20260510143020 58 246 0.0 0.0 0.00 0.14 0.00 88 1013.4
20260510141517 56 269 0.0 0.0 0.00 0.14 0.00 88 1013.3
20260510140016 55 189 0.0 0.0 0.00 0.14 0.00 88 1013.3
20260510134513 55 189 0.0 0.0 0.00 0.14 0.00 88 1013.1
20260510133009 54 189 0.0 0.0 0.00 0.14 0.00 88 1013.2
20260510131507 54 189 0.0 0.0 0.00 0.14 0.00 88 1013.2
20260510130006 53 176 0.0 0.0 0.00 0.14 0.00 88 1013.1
20260510124503 53 176 0.0 0.0 0.00 0.14 0.00 88 1012.8
20260510123100 53 176 0.0 0.0 0.00 0.14 0.00 87 1012.8
20260510121558 52 176 0.0 0.0 0.00 0.14 0.00 88 1012.8
20260510120055 52 159 0.0 0.0 0.00 0.14 0.00 88 1012.6
20260510114606 52 159 0.0 0.0 0.00 0.14 0.00 88 1012.4
20260510113056 51 159 0.0 0.0 0.00 0.14 0.00 87 1012.4
20260510111547 51 159 0.0 0.0 0.00 0.14 0.00 87 1012.4
20260510110051 51 155 0.0 0.0 0.00 0.14 0.00 87 1012.1
20260510104540 51 111 0.0 0.0 0.00 0.14 0.00 87 1011.9
20260510103042 51 110 0.0 0.0 0.00 0.14 0.00 87 1011.7
20260510101535 50 108 0.0 0.0 0.00 0.14 0.00 87 1011.7
20260510100045 50 109 0.0 0.9 0.00 0.14 0.00 88 1011.5
20260510094537 50 109 0.0 0.9 0.00 0.14 0.00 87 1011.6
20260510093027 49 117 0.0 0.9 0.00 0.14 0.00 87 1011.6
20260510091527 49 100 0.0 1.7 0.00 0.14 0.00 87 1011.5
20260510090021 48 273 0.0 0.0 0.00 0.14 0.00 88 1011.6
20260510084517 47 219 0.0 0.0 0.00 0.14 0.00 87 1011.3
20260510083016 46 219 0.0 0.0 0.00 0.14 0.00 87 1011.1
20260510081523 46 219 0.0 0.0 0.00 0.14 0.00 87 1011.0
20260510080036 46 219 0.0 0.0 0.00 0.14 0.00 87 1011.1
20260510074514 45 219 0.0 0.0 0.00 0.14 0.00 87 1010.9
20260510073020 45 219 0.0 0.0 0.00 0.14 0.00 87 1011.0
20260510071518 44 219 0.0 0.0 0.00 0.14 0.00 86 1010.9
20260510070011 45 219 0.0 0.0 0.00 0.14 0.00 86 1010.7
20260510064511 45 219 0.0 0.0 0.00 0.14 0.00 86 1010.5
20260510063006 45 219 0.0 0.0 0.00 0.14 0.00 86 1010.5
20260510061505 46 219 0.0 0.0 0.00 0.14 0.00 86 1010.7
20260510060007 46 219 0.0 0.0 0.00 0.14 0.00 86 1010.8
20260510054501 47 219 0.0 0.0 0.00 0.14 0.00 86 1011.0
20260510053100 47 219 0.0 0.0 0.00 0.14 0.00 86 1011.1
20260510051608 47 219 0.0 0.0 0.00 0.14 0.00 86 1011.1
20260510050115 47 219 0.0 0.0 0.00 0.14 0.00 86 1011.2
20260510044555 47 219 0.0 0.0 0.00 0.14 0.00 86 1011.3
20260510043054 47 219 0.0 0.0 0.00 0.14 0.00 86 1011.3
20260510041551 47 219 0.0 0.0 0.00 0.14 0.00 86 1011.4
20260510040047 47 219 0.0 0.0 0.00 0.14 0.00 86 1011.3
20260510034546 47 219 0.0 0.0 0.00 0.14 0.14 85 1011.2
20260510033054 47 219 0.0 0.0 0.00 0.14 0.14 85 1010.9
20260510031548 47 219 0.0 0.0 0.00 0.14 0.14 85 1011.1
20260510030044 47 219 0.0 0.0 0.00 0.14 0.14 85 1010.9
20260510024542 48 219 0.0 0.0 0.00 0.14 0.14 85 1010.7
20260510023041 48 219 0.0 0.0 0.00 0.14 0.14 85 1010.8
20260510021634 49 219 0.0 0.0 0.00 0.14 0.14 85 1010.7
20260510020042 49 219 0.0 0.0 0.00 0.14 0.14 85 1010.7
20260510014551 50 219 0.0 0.0 0.00 0.14 0.14 85 1010.8
20260510013043 50 219 0.0 0.0 0.00 0.14 0.14 84 1010.8
20260510011539 51 219 0.0 0.0 0.00 0.14 0.14 84 1010.7
20260510010049 51 219 0.0 0.0 0.00 0.14 0.14 84 1010.5
20260510004538 52 219 0.0 0.0 0.00 0.14 0.14 84 1010.5
20260510003038 52 219 0.0 0.0 0.00 0.14 0.14 84 1010.3
20260510001540 53 219 0.0 0.0 0.00 0.14 0.14 84 1010.2
20260510000037 54 219 0.0 0.0 0.00 0.14 0.14 84 1010.1
20260509234536 55 219 0.0 0.0 0.00 0.14 0.14 84 1010.0
20260509233036 55 219 0.0 0.0 0.00 0.14 0.14 84 1010.1
20260509231535 56 219 0.0 0.0 0.00 0.14 0.14 84 1010.0
20260509230039 56 219 0.0 0.0 0.00 0.14 0.14 84 1010.0
20260509224534 56 219 0.0 0.0 0.00 0.14 0.14 84 1010.0
20260509223135 56 219 0.0 0.0 0.02 0.14 0.14 84 1010.0
20260509221535 56 219 0.0 0.0 0.10 0.14 0.14 83 1010.2
20260509220032 56 219 0.0 1.7 0.14 0.14 0.14 83 1010.4
20260509214531 56 219 0.0 0.0 0.14 0.14 0.14 81 1010.7
20260509213035 56 219 0.0 0.9 0.12 0.12 0.12 80 1010.8
20260509211530 58 219 0.0 0.9 0.03 0.03 0.03 78 1010.7
20260509210032 59 219 0.0 0.0 0.00 0.00 0.00 75 1010.7
20260509204527 59 213 0.0 0.0 0.00 0.00 0.00 74 1010.1
20260509203028 59 285 0.0 0.0 0.00 0.00 0.00 73 1010.4
20260509201526 60 221 0.0 0.0 0.00 0.00 0.00 73 1010.3
20260509200024 60 355 0.0 0.0 0.00 0.00 0.00 74 1010.2
20260509194532 60 287 0.0 0.0 0.00 0.00 0.00 75 1010.4
20260509193023 60 254 0.0 0.0 0.00 0.00 0.00 73 1010.5
20260509191520 60 80 0.0 0.0 0.00 0.00 0.00 72 1010.6